SCP
-0 -0 -0 0 -0 -0 0 0 0 0 0 0 -0 -0 -0 0 -0 0 0 0 -0 -0 -0 -0 0 0 0 0 0 0 0 0 0 0 0 0 0 0 0 0 0 0 0 0 0 0 0 0 0
-0 0 0 0 0 0 0 -0 0 0 -0 0 -0 -0 -0 -0 -0 0 0 0 -0 -0 0 0 0 0 0 0 0 0 0 0 0 0 0 0 0 0 0 0 0 0 0 0 0 0 0 0 0
-0 -0 -0 0 0 0 0 0 0 -0 0 -0 -0 -0 0 -0 0 0 0 -0 -0 -0 -0 -0 0 0 0 0 0 0 0 0 0 0 0 0 0 0 0 0 0 0 0 0 0 0 0 0 0
-0 -0 -0 0 0 0 0 0 0 -0 -0 -0 -0 -0 -0 -0 -0 0 -0 -0 -0 0 0 -0 -0 0 0 0 0 0 0 0 0 0 0 0 0 0 0 0 0 0 0 0 0 0 0 0 0
0 -0 -0 -0 -0 -0 -0 -0 -0 0 -0 0 0 -0 -0 -0 0 -0 -0 -0 -0 -0 -0 -0 -0 0 0 0 0 0 0 0 0 0 0 0 0 0 0 0 0 0 0 0 0 0 0 0 0
0 0 -0 -0 -0 -0 -0 -0 -0 -0 -0 0 -0 -0 0 0 -0 -0 -0 -0 -0 -0 -0 -0 0 0 0 0 0 0 0 0 0 0 0 0 0 0 0 0 0 0 0 0 0 0 0 0 0
0 0 0 -0 -0 -0 -0 -0 -0 -0 -0 -0 -0 -0 -0 -0 -0 -0 -0 -0 -0 -0 0 -0 0 0 0 0 0 0 0 0 0 0 0 0 0 0 0 0 0 0 0 0 0 0 0 0 0
-0 -0 0 0 -0 -0 -0 -0 -0 0 -0 -0 -0 -0 0 -0 -0 -0 -0 -0 0 0 0 0 0 0 0 0 0 0 0 0 0 0 0 0 0 0 0 0 0 0 0 0 0 0 0 0 0
0 -0 0 -0 -0 0 -0 -0 0 0 0 0 0 0 0 -0 0 0 0 0 0 0 0 0 0 0 0 0 0 0 0 0 0 0 0 0 -0 0 0 0 0 0 0 -0 -0 0 0 0 -0
-0 -0 0 0 0 0 0 -0 0 0 0 0 0 0 0 0 -0 0 0 0 0 0 0 0 0 1 0 0 0 0 0 0 0 0 0 -0 0 0 0 0 0 0 0 0 0 -0 0 0 -0
0 0 -0 0 -0 0 0 -0 -0 -0 0 -0 0 0 0 -0 0 0 0 0 0 0 0 0 0 1 0 0 0 0 0 0 0 0 0 0 0 0 0 0 0 0 0 0 0 0 0 0 0
0 0 0 0 0 -0 -0 -0 -0 0 0 0 0 0 0 0 0 0 0 0 0 1 0 0 1 1 0 0 0 0 0 0 0 0 0 0 0 0 0 0 0 0 0 0 0 0 0 0 0
-0 0 0 0 -0 0 0 -0 0 0 0 0 0 0 0 0 0 1 1 0 0 1 1 0 0 1 0 0 0 0 0 0 0 0 0 0 0 0 0 0 0 0 0 0 0 0 0 0 0
0 -0 -0 0 0 0 -0 0 0 0 0 0 0 0 0 0 1 1 1 1 1 1 1 1 1 1 0 0 0 0 0 0 0 0 0 0 0 0 0 0 0 0 0 0 0 0 0 0 0
-0 0 -0 0 0 0 -0 0 0 0 0 0 0 0 0 0 1 1 1 1 1 1 1 2 1 1 0 1 0 0 0 0 0 0 0 0 0 0 0 0 0 0 0 0 0 0 0 0 0
0 0 0 0 0 0 -0 0 0 0 0 0 0 0 1 1 1 1 1 1 1 1 1 1 1 0 0 0 0 0 0 0 0 0 0 0 0 0 0 0 0 1 0 0 0 0 0 0 0
0 0 -0 0 0 0 -0 0 0 0 0 0 0 0 0 1 1 1 1 1 1 1 1 1 1 1 0 0 0 0 0 0 0 0 0 0 0 0 0 0 0 0 0 0 0 0 0 0 0
0 0 0 -0 0 0 0 0 0 0 0 0 0 1 1 1 1 1 1 1 1 1 1 1 1 1 1 0 0 0 1 0 1 0 0 0 0 0 0 0 0 0 0 0 0 0 0 0 0
0 0 -0 0 -0 0 0 0 0 0 0 0 0 0 1 1 2 1 1 1 1 1 1 1 1 1 1 0 0 0 1 0 0 0 0 0 0 0 0 0 0 0 0 0 0 0 0 0 0
-0 -0 -0 0 -0 0 0 0 0 0 0 0 0 0 1 1 1 1 1 1 1 1 1 1 1 1 1 0 1 0 0 0 0 0 0 0 0 0 0 0 0 0 0 0 0 0 0 0 0
0 0 -0 0 -0 0 0 -0 0 0 0 0 0 0 0 1 1 1 1 1 1 1 1 1 1 1 1 1 0 1 1 0 0 0 0 0 0 0 0 0 0 0 0 0 0 0 0 0 0
-0 -0 0 -0 -0 -0 0 0 0 0 0 0 0 0 0 1 2 1 1 1 1 0 0 0 1 1 0 0 0 1 0 0 0 0 0 0 0 0 0 0 0 0 0 0 0 0 0 0 0
0 0 -0 -0 -0 0 -0 -0 0 0 0 0 0 0 0 1 1 1 1 1 0 0 0 0 0 0 0 0 0 0 0 0 0 0 0 0 0 0 0 0 0 0 0 0 0 0 0 0 0
-0 -0 0 -0 0 0 0 0 0 0 0 0 0 1 0 1 1 1 1 1 1 0 0 1 0 0 0 0 0 0 0 0 0 0 0 0 0 0 0 0 0 0 0 0 0 0 0 0 0
-0 0 0 0 0 0 0 0 0 0 0 0 0 1 1 1 1 1 1 0 0 0 0 0 0 0 0 0 0 0 0 0 0 0 0 0 0 0 0 0 0 0 0 0 0 0 0 0 0
-0 -0 0 -0 -0 -0 0 -0 0 0 0 0 0 0 0 1 0 0 1 0 0 0 0 0 0 0 0 0 0 0 0 0 0 0 0 0 0 0 0 0 0 0 0 0 0 0 0 0 0
-0 -0 0 0 0 0 0 0 0 0 0 0 0 0 0 0 0 0 0 0 0 0 0 0 0 0 0 0 0 0 0 0 0 0 0 0 0 0 0 0 0 0 0 0 0 0 0 0 0
0 0 0 -0 0 0 -0 0 0 0 0 0 0 0 0 0 0 0 0 0 0 0 0 0 0 0 0 0 0 0 0 0 0 0 0 0 0 0 0 0 0 0 0 0 0 0 0 0 0
0 0 0 0 0 0 0 0 0 0 0 0 0 0 0 0 0 0 0 0 0 0 0 0 0 0 0 0 0 0 0 0 0 0 0 0 0 0 0 0 0 0 0 0 0 0 0 0 0
0 0 0 0 0 0 0 0 0 0 0 0 0 0 0 0 0 0 0 0 0 0 0 0 0 0 0 0 0 0 0 0 0 0 0 0 0 0 0 0 0 0 0 0 0 0 0 0 0
Wind_Speed_500mb
7 10 10 14 14 11 13 10 5 6 8 16 17 17 21 19 27 7 19 17 34 37 38 38 31 29 26 21 17 12 9 8 7 7 5 4 4 3 4 4 6 9 11 13 14 15 16 17 18
3 11 11 24 18 7 14 3 7 16 21 14 8 10 2 27 23 16 17 23 33 33 35 32 32 27 23 18 13 9 8 7 7 6 5 3 3 2 4 6 9 10 12 14 16 17 19 20 22
4 12 23 12 5 4 6 4 21 23 12 5 12 11 12 18 14 11 11 31 38 25 28 31 31 26 21 15 13 11 9 9 6 4 3 1 3 4 5 7 9 11 14 16 18 19 19 20 20
10 19 22 9 12 13 21 14 20 22 16 3 1 21 17 12 4 7 24 34 37 29 24 25 28 23 19 18 16 13 10 7 6 4 4 3 3 6 7 9 11 13 14 16 17 18 19 19 19
16 26 19 13 29 16 20 18 17 12 9 14 9 16 25 9 15 20 26 36 35 29 28 29 28 24 20 16 15 13 11 10 8 6 3 1 4 5 6 8 9 10 12 13 15 16 17 18 18
29 9 11 23 22 19 21 17 20 13 9 16 13 15 18 16 20 25 30 33 29 28 26 25 29 24 21 20 17 15 13 10 7 6 5 4 3 1 3 5 7 8 8 9 12 13 15 15 15
39 11 33 17 22 25 20 7 9 16 19 22 5 16 20 19 22 26 29 29 28 27 28 17 24 23 25 21 18 15 12 11 9 8 5 3 4 3 3 4 6 7 8 9 11 15 17 18 19
29 31 11 14 22 22 24 5 10 9 18 13 4 17 19 25 27 26 26 26 25 24 26 17 25 21 20 18 16 14 12 13 12 7 5 3 3 7 6 9 9 14 12 13 13 15 17 20 21
22 17 8 3 32 11 20 10 11 3 10 7 6 11 12 25 27 27 27 26 25 23 23 18 31 26 22 24 14 15 16 13 9 5 5 5 5 13 15 9 22 14 13 14 15 20 25 26 22
29 13 35 11 12 9 16 5 14 11 17 21 19 14 16 24 25 27 25 25 25 24 24 23 21 24 20 20 17 15 13 11 7 4 9 7 8 10 11 13 18 21 16 34 20 24 33 24 19
6 6 12 14 24 10 3 17 14 13 15 39 18 33 24 25 24 23 22 22 24 25 25 23 26 27 24 22 16 15 16 17 13 14 10 7 6 7 10 12 19 19 23 23 27 32 29 28 27
17 7 12 16 7 9 14 26 14 8 22 10 9 3 18 20 22 21 21 20 23 25 25 22 24 23 30 25 20 19 19 17 14 9 11 9 5 12 10 13 15 19 19 25 26 24 30 31 35
16 6 8 10 14 10 15 20 12 9 7 6 3 7 17 17 18 18 19 21 22 24 22 20 17 22 25 30 20 22 20 19 21 14 20 20 17 14 17 20 20 26 28 34 30 34 43 39 39
10 12 12 5 7 11 17 21 7 13 1 1 1 4 10 14 17 17 19 20 22 20 21 19 18 26 23 26 33 39 35 31 35 35 31 24 20 22 21 25 34 31 36 45 30 44 49 52 51
15 20 29 12 4 9 20 26 20 9 4 5 5 7 10 13 15 16 16 19 18 17 18 24 29 28 32 39 35 32 35 37 38 34 38 32 28 28 35 38 42 44 38 39 42 43 41 43 50
33 17 21 2 16 6 19 6 18 7 5 8 8 10 11 14 16 15 15 17 16 13 13 17 21 26 32 32 34 35 28 35 35 34 25 29 33 37 38 37 35 26 29 34 40 44 41 54 46
29 26 43 17 22 9 20 26 49 11 1 11 10 12 15 18 17 17 16 15 13 11 15 17 17 25 22 20 19 22 23 20 27 14 23 18 21 25 28 24 19 25 29 33 37 38 42 46 50
3 22 26 54 13 37 23 25 14 14 12 14 15 16 18 20 19 17 16 13 11 9 9 14 17 19 21 13 11 11 12 15 15 17 13 11 10 19 20 12 17 22 24 30 34 42 38 46 51
28 26 29 19 26 8 21 28 26 16 17 25 18 17 18 19 22 19 16 16 15 12 16 19 19 22 17 9 11 7 12 9 11 9 12 11 4 6 10 9 15 19 26 31 30 31 43 44 46
36 33 31 8 37 9 32 29 29 25 20 23 19 21 19 26 24 19 21 20 16 18 21 26 24 22 16 10 5 6 8 9 11 9 5 4 1 4 5 11 17 29 24 27 29 37 38 41 42
33 32 41 39 35 32 39 32 13 27 53 23 19 22 26 32 29 22 25 24 23 20 27 28 23 18 15 10 9 11 9 12 7 5 5 2 2 2 7 19 20 23 21 24 31 30 33 42 43
32 26 33 36 35 33 36 32 35 27 29 28 29 27 28 28 28 26 27 27 23 23 24 28 23 13 9 11 6 6 4 3 11 2 12 9 6 7 8 12 16 20 22 22 24 29 32 37 41
37 36 36 39 39 43 44 36 17 33 39 29 24 33 29 32 29 28 26 25 24 23 23 23 17 13 8 6 5 5 3 3 3 5 15 11 20 9 9 15 18 18 16 21 25 28 31 32 36
37 41 33 44 39 36 7 15 23 12 22 8 16 24 21 33 34 26 26 26 24 16 17 15 14 11 9 6 11 10 11 4 2 6 7 9 12 13 13 17 19 18 19 21 23 27 26 31 33
35 24 30 28 26 23 20 26 26 15 14 11 11 21 21 33 30 31 27 23 20 17 16 11 12 9 11 14 9 7 4 2 1 3 8 11 9 11 20 22 22 18 22 21 24 27 24 29 32
30 33 26 43 33 36 44 38 20 26 9 8 1 29 33 28 34 31 24 20 17 16 15 13 11 13 13 12 9 5 3 2 5 9 13 7 8 12 22 18 20 20 23 23 23 21 26 23 29
37 28 40 28 41 37 21 30 21 15 21 10 16 23 30 32 36 27 20 14 16 16 16 14 14 14 12 9 6 3 3 5 9 11 5 8 10 15 18 19 19 19 22 24 26 24 30 25 27
41 30 32 20 18 25 36 15 16 11 22 22 21 29 36 43 33 26 23 24 18 19 18 15 13 11 9 7 4 4 7 8 15 11 11 12 15 16 18 21 21 20 22 24 27 26 26 32 28
19 18 5 19 11 14 33 12 42 4 18 7 14 27 41 38 38 28 25 24 23 21 16 15 12 8 5 5 7 9 9 13 16 14 15 17 20 20 20 21 22 23 23 24 28 33 31 29 36
13 29 29 19 24 22 8 22 17 23 41 22 7 28 51 52 37 32 27 27 23 18 15 13 7 5 8 10 10 13 15 16 17 16 17 19 21 22 23 25 24 25 26 26 28 31 31 32 36
Wind_Direction_500mb
327 352 332 281 247 154 93 89 12 77 83 47 63 9 33 29 11 60 137 161 158 165 171 173 175 182 185 183 175 168 164 170 175 182 186 200 213 230 261 283 299 306 304 301 299 297 294 291 288
208 258 262 261 257 71 89 184 109 61 77 86 102 186 135 77 47 95 135 147 159 171 167 168 175 178 178 178 167 163 170 185 192 189 192 205 249 294 298 307 305 301 302 305 307 303 301 296 294
225 250 261 237 303 45 80 60 103 93 118 218 132 32 13 41 48 125 138 154 157 159 159 186 177 180 181 179 183 183 184 181 182 177 176 225 283 290 309 317 327 336 335 334 333 329 325 321 319
264 214 244 349 109 67 85 88 114 146 113 327 340 88 103 61 70 151 149 151 155 163 161 203 185 185 185 186 185 183 179 182 182 195 221 237 283 332 345 354 357 354 351 349 347 345 341 333 323
245 251 231 126 93 92 84 117 104 68 97 115 284 107 76 89 108 129 141 149 156 159 175 211 191 188 188 187 179 181 179 186 193 190 185 45 9 10 14 11 9 3 3 1 358 356 355 354 349
244 269 185 129 126 130 120 121 134 89 81 106 91 95 82 125 129 143 143 152 158 161 171 198 184 183 183 181 185 184 184 190 182 166 132 107 79 59 4 358 355 349 348 356 359 357 354 353 347
270 87 250 75 118 126 130 121 107 120 152 102 73 66 113 137 149 143 149 157 162 165 165 170 179 181 178 189 188 192 187 177 169 158 145 95 36 21 347 324 318 326 331 340 344 342 342 338 336
283 169 125 191 135 106 96 236 75 292 68 80 330 36 114 155 150 152 158 164 163 172 169 183 181 184 183 200 196 198 187 177 179 160 107 94 87 23 31 337 338 326 320 325 330 334 325 317 321
276 281 97 298 102 173 141 149 121 100 206 153 122 22 97 155 154 162 169 171 172 178 176 187 188 180 186 195 224 208 194 181 171 156 129 101 48 331 330 276 301 301 312 326 329 335 335 324 309
257 104 275 152 120 38 126 315 130 248 171 174 175 155 146 162 170 179 179 179 180 181 184 177 167 191 183 185 235 188 188 181 169 189 251 71 213 222 226 269 325 341 334 337 316 330 332 322 307
336 127 293 81 35 354 341 238 224 238 27 14 30 156 162 174 181 189 192 189 187 188 185 188 188 211 192 195 201 185 198 185 191 193 191 232 228 272 302 305 308 343 320 325 326 321 315 309 298
293 124 335 61 82 328 296 339 288 280 40 6 1 320 174 184 192 197 197 196 187 194 191 193 208 202 203 182 203 200 200 191 178 209 221 228 276 279 287 295 305 303 302 302 299 291 292 294 295
239 329 305 140 250 288 332 264 348 34 9 354 319 215 186 191 193 194 194 196 196 194 197 196 205 187 201 177 199 200 203 191 198 192 220 232 245 272 280 274 282 288 291 297 295 292 296 295 295
329 282 249 267 261 231 288 306 223 112 99 102 45 147 167 178 182 183 187 190 192 197 205 206 213 221 200 204 206 205 208 234 245 233 239 245 252 247 263 280 287 287 298 288 303 297 292 286 287
281 258 231 194 167 315 317 275 6 83 143 165 163 157 152 161 167 171 182 184 191 203 216 215 213 228 215 216 217 236 237 250 251 244 272 247 258 272 281 288 293 285 295 300 304 302 291 290 286
244 214 267 225 223 213 272 272 344 198 236 214 173 172 160 155 157 164 165 173 188 208 230 245 247 245 229 228 229 242 240 252 249 268 254 250 263 275 286 291 301 294 291 301 306 306 305 304 303
355 326 349 235 191 311 268 288 174 154 79 271 211 190 181 158 157 159 163 168 186 218 242 242 220 222 238 220 232 220 248 257 253 219 233 245 267 287 295 308 312 313 314 311 311 310 312 311 307
31 274 198 249 86 245 256 277 287 187 221 240 222 197 188 176 168 167 164 177 185 184 174 181 169 176 167 205 192 200 222 195 200 222 219 260 278 292 307 335 298 319 317 314 311 314 311 308 307
228 297 302 341 302 291 281 304 305 281 210 251 222 213 202 173 160 157 147 142 142 150 156 149 152 145 136 159 171 200 187 205 201 189 259 279 351 339 312 315 323 318 323 319 313 307 317 314 316
297 286 285 353 263 288 276 276 274 293 243 241 222 213 213 163 161 149 138 138 150 149 155 142 144 140 135 145 147 153 194 179 196 232 146 160 136 300 324 329 338 303 321 322 308 317 320 318 320
280 291 296 295 304 284 268 299 233 237 226 212 193 204 202 175 165 154 144 142 136 146 150 149 155 147 155 146 171 164 181 197 218 128 97 264 307 307 324 321 325 324 338 324 318 322 321 322 326
280 292 281 287 300 295 312 286 285 267 184 203 180 180 185 172 166 161 152 147 144 141 152 160 167 156 158 132 194 217 195 219 129 156 236 291 287 315 330 336 334 331 337 320 329 323 328 327 328
289 299 305 289 281 278 271 308 288 64 254 8 219 184 187 168 173 165 155 148 141 146 161 164 165 166 148 132 141 92 155 291 212 250 292 277 287 326 315 342 333 327 340 330 329 329 329 333 323
288 283 276 270 267 272 92 203 270 179 322 311 101 149 181 167 155 162 156 146 142 137 156 157 142 141 133 119 115 132 173 177 209 212 288 287 296 307 298 325 326 329 329 327 338 334 334 332 324
260 305 284 282 258 251 258 263 279 42 48 10 312 139 160 154 152 167 159 148 147 151 164 151 152 132 131 126 125 112 104 126 59 356 303 312 297 298 293 319 323 326 319 329 331 335 337 327 324
308 301 289 301 303 306 318 296 25 22 20 64 192 141 147 161 169 176 155 153 155 160 168 172 165 149 145 146 150 138 94 276 338 317 295 285 302 314 313 314 322 320 320 321 323 344 327 323 319
299 292 306 284 272 273 302 300 242 135 20 143 131 140 158 177 158 145 156 147 147 156 158 157 155 155 153 162 170 208 274 328 305 308 318 288 315 317 301 315 317 318 316 314 315 322 325 322 322
251 272 291 303 341 308 295 279 272 99 158 207 175 164 165 152 154 155 148 140 157 157 151 154 158 166 176 192 217 256 294 317 320 300 290 304 312 318 322 318 314 314 315 314 308 311 311 307 318
328 254 183 259 149 219 271 323 344 307 320 20 157 171 153 147 152 161 151 149 156 154 150 154 157 170 208 253 268 287 295 303 314 291 288 302 310 315 318 315 310 311 311 309 308 310 314 304 305
298 289 297 312 305 277 317 284 137 274 356 343 348 173 157 153 168 162 152 155 159 160 164 170 188 244 277 278 278 288 288 299 311 297 291 299 306 308 312 315 306 303 306 305 307 307 306 306 304
Wind_Speed_850mb
7 10 10 14 14 11 13 10 5 6 8 16 17 17 21 19 27 7 19 17 34 37 38 38 31 29 26 21 17 12 9 8 7 7 5 4 4 3 4 4 6 9 11 13 14 15 16 17 18
3 11 11 24 18 7 14 3 7 16 21 14 8 10 2 27 23 16 17 23 33 33 35 32 32 27 23 18 13 9 8 7 7 6 5 3 3 2 4 6 9 10 12 14 16 17 19 20 22
4 12 23 12 5 4 6 4 21 23 12 5 12 11 12 18 14 11 11 31 38 25 28 31 31 26 21 15 13 11 9 9 6 4 3 1 3 4 5 7 9 11 14 16 18 19 19 20 20
10 19 22 9 12 13 21 14 20 22 16 3 1 21 17 12 4 7 24 34 37 29 24 25 28 23 19 18 16 13 10 7 6 4 4 3 3 6 7 9 11 13 14 16 17 18 19 19 19
16 26 19 13 29 16 20 18 17 12 9 14 9 16 25 9 15 20 26 36 35 29 28 29 28 24 20 16 15 13 11 10 8 6 3 1 4 5 6 8 9 10 12 13 15 16 17 18 18
29 9 11 23 22 19 21 17 20 13 9 16 13 15 18 16 20 25 30 33 29 28 26 25 29 24 21 20 17 15 13 10 7 6 5 4 3 1 3 5 7 8 8 9 12 13 15 15 15
39 11 33 17 22 25 20 7 9 16 19 22 5 16 20 19 22 26 29 29 28 27 28 17 24 23 25 21 18 15 12 11 9 8 5 3 4 3 3 4 6 7 8 9 11 15 17 18 19
29 31 11 14 22 22 24 5 10 9 18 13 4 17 19 25 27 26 26 26 25 24 26 17 25 21 20 18 16 14 12 13 12 7 5 3 3 7 6 9 9 14 12 13 13 15 17 20 21
22 17 8 3 32 11 20 10 11 3 10 7 6 11 12 25 27 27 27 26 25 23 23 18 31 26 22 24 14 15 16 13 9 5 5 5 5 13 15 9 22 14 13 14 15 20 25 26 22
29 13 35 11 12 9 16 5 14 11 17 21 19 14 16 24 25 27 25 25 25 24 24 23 21 24 20 20 17 15 13 11 7 4 9 7 8 10 11 13 18 21 16 34 20 24 33 24 19
6 6 12 14 24 10 3 17 14 13 15 39 18 33 24 25 24 23 22 22 24 25 25 23 26 27 24 22 16 15 16 17 13 14 10 7 6 7 10 12 19 19 23 23 27 32 29 28 27
17 7 12 16 7 9 14 26 14 8 22 10 9 3 18 20 22 21 21 20 23 25 25 22 24 23 30 25 20 19 19 17 14 9 11 9 5 12 10 13 15 19 19 25 26 24 30 31 35
16 6 8 10 14 10 15 20 12 9 7 6 3 7 17 17 18 18 19 21 22 24 22 20 17 22 25 30 20 22 20 19 21 14 20 20 17 14 17 20 20 26 28 34 30 34 43 39 39
10 12 12 5 7 11 17 21 7 13 1 1 1 4 10 14 17 17 19 20 22 20 21 19 18 26 23 26 33 39 35 31 35 35 31 24 20 22 21 25 34 31 36 45 30 44 49 52 51
15 20 29 12 4 9 20 26 20 9 4 5 5 7 10 13 15 16 16 19 18 17 18 24 29 28 32 39 35 32 35 37 38 34 38 32 28 28 35 38 42 44 38 39 42 43 41 43 50
33 17 21 2 16 6 19 6 18 7 5 8 8 10 11 14 16 15 15 17 16 13 13 17 21 26 32 32 34 35 28 35 35 34 25 29 33 37 38 37 35 26 29 34 40 44 41 54 46
29 26 43 17 22 9 20 26 49 11 1 11 10 12 15 18 17 17 16 15 13 11 15 17 17 25 22 20 19 22 23 20 27 14 23 18 21 25 28 24 19 25 29 33 37 38 42 46 50
3 22 26 54 13 37 23 25 14 14 12 14 15 16 18 20 19 17 16 13 11 9 9 14 17 19 21 13 11 11 12 15 15 17 13 11 10 19 20 12 17 22 24 30 34 42 38 46 51
28 26 29 19 26 8 21 28 26 16 17 25 18 17 18 19 22 19 16 16 15 12 16 19 19 22 17 9 11 7 12 9 11 9 12 11 4 6 10 9 15 19 26 31 30 31 43 44 46
36 33 31 8 37 9 32 29 29 25 20 23 19 21 19 26 24 19 21 20 16 18 21 26 24 22 16 10 5 6 8 9 11 9 5 4 1 4 5 11 17 29 24 27 29 37 38 41 42
33 32 41 39 35 32 39 32 13 27 53 23 19 22 26 32 29 22 25 24 23 20 27 28 23 18 15 10 9 11 9 12 7 5 5 2 2 2 7 19 20 23 21 24 31 30 33 42 43
32 26 33 36 35 33 36 32 35 27 29 28 29 27 28 28 28 26 27 27 23 23 24 28 23 13 9 11 6 6 4 3 11 2 12 9 6 7 8 12 16 20 22 22 24 29 32 37 41
37 36 36 39 39 43 44 36 17 33 39 29 24 33 29 32 29 28 26 25 24 23 23 23 17 13 8 6 5 5 3 3 3 5 15 11 20 9 9 15 18 18 16 21 25 28 31 32 36
37 41 33 44 39 36 7 15 23 12 22 8 16 24 21 33 34 26 26 26 24 16 17 15 14 11 9 6 11 10 11 4 2 6 7 9 12 13 13 17 19 18 19 21 23 27 26 31 33
35 24 30 28 26 23 20 26 26 15 14 11 11 21 21 33 30 31 27 23 20 17 16 11 12 9 11 14 9 7 4 2 1 3 8 11 9 11 20 22 22 18 22 21 24 27 24 29 32
30 33 26 43 33 36 44 38 20 26 9 8 1 29 33 28 34 31 24 20 17 16 15 13 11 13 13 12 9 5 3 2 5 9 13 7 8 12 22 18 20 20 23 23 23 21 26 23 29
37 28 40 28 41 37 21 30 21 15 21 10 16 23 30 32 36 27 20 14 16 16 16 14 14 14 12 9 6 3 3 5 9 11 5 8 10 15 18 19 19 19 22 24 26 24 30 25 27
41 30 32 20 18 25 36 15 16 11 22 22 21 29 36 43 33 26 23 24 18 19 18 15 13 11 9 7 4 4 7 8 15 11 11 12 15 16 18 21 21 20 22 24 27 26 26 32 28
19 18 5 19 11 14 33 12 42 4 18 7 14 27 41 38 38 28 25 24 23 21 16 15 12 8 5 5 7 9 9 13 16 14 15 17 20 20 20 21 22 23 23 24 28 33 31 29 36
13 29 29 19 24 22 8 22 17 23 41 22 7 28 51 52 37 32 27 27 23 18 15 13 7 5 8 10 10 13 15 16 17 16 17 19 21 22 23 25 24 25 26 26 28 31 31 32 36
Wind_Direction_850mb
327 352 332 281 247 154 93 89 12 77 83 47 63 9 33 29 11 60 137 161 158 165 171 173 175 182 185 183 175 168 164 170 175 182 186 200 213 230 261 283 299 306 304 301 299 297 294 291 288
208 258 262 261 257 71 89 184 109 61 77 86 102 186 135 77 47 95 135 147 159 171 167 168 175 178 178 178 167 163 170 185 192 189 192 205 249 294 298 307 305 301 302 305 307 303 301 296 294
225 250 261 237 303 45 80 60 103 93 118 218 132 32 13 41 48 125 138 154 157 159 159 186 177 180 181 179 183 183 184 181 182 177 176 225 283 290 309 317 327 336 335 334 333 329 325 321 319
264 214 244 349 109 67 85 88 114 146 113 327 340 88 103 61 70 151 149 151 155 163 161 203 185 185 185 186 185 183 179 182 182 195 221 237 283 332 345 354 357 354 351 349 347 345 341 333 323
245 251 231 126 93 92 84 117 104 68 97 115 284 107 76 89 108 129 141 149 156 159 175 211 191 188 188 187 179 181 179 186 193 190 185 45 9 10 14 11 9 3 3 1 358 356 355 354 349
244 269 185 129 126 130 120 121 134 89 81 106 91 95 82 125 129 143 143 152 158 161 171 198 184 183 183 181 185 184 184 190 182 166 132 107 79 59 4 358 355 349 348 356 359 357 354 353 347
270 87 250 75 118 126 130 121 107 120 152 102 73 66 113 137 149 143 149 157 162 165 165 170 179 181 178 189 188 192 187 177 169 158 145 95 36 21 347 324 318 326 331 340 344 342 342 338 336
283 169 125 191 135 106 96 236 75 292 68 80 330 36 114 155 150 152 158 164 163 172 169 183 181 184 183 200 196 198 187 177 179 160 107 94 87 23 31 337 338 326 320 325 330 334 325 317 321
276 281 97 298 102 173 141 149 121 100 206 153 122 22 97 155 154 162 169 171 172 178 176 187 188 180 186 195 224 208 194 181 171 156 129 101 48 331 330 276 301 301 312 326 329 335 335 324 309
257 104 275 152 120 38 126 315 130 248 171 174 175 155 146 162 170 179 179 179 180 181 184 177 167 191 183 185 235 188 188 181 169 189 251 71 213 222 226 269 325 341 334 337 316 330 332 322 307
336 127 293 81 35 354 341 238 224 238 27 14 30 156 162 174 181 189 192 189 187 188 185 188 188 211 192 195 201 185 198 185 191 193 191 232 228 272 302 305 308 343 320 325 326 321 315 309 298
293 124 335 61 82 328 296 339 288 280 40 6 1 320 174 184 192 197 197 196 187 194 191 193 208 202 203 182 203 200 200 191 178 209 221 228 276 279 287 295 305 303 302 302 299 291 292 294 295
239 329 305 140 250 288 332 264 348 34 9 354 319 215 186 191 193 194 194 196 196 194 197 196 205 187 201 177 199 200 203 191 198 192 220 232 245 272 280 274 282 288 291 297 295 292 296 295 295
329 282 249 267 261 231 288 306 223 112 99 102 45 147 167 178 182 183 187 190 192 197 205 206 213 221 200 204 206 205 208 234 245 233 239 245 252 247 263 280 287 287 298 288 303 297 292 286 287
281 258 231 194 167 315 317 275 6 83 143 165 163 157 152 161 167 171 182 184 191 203 216 215 213 228 215 216 217 236 237 250 251 244 272 247 258 272 281 288 293 285 295 300 304 302 291 290 286
244 214 267 225 223 213 272 272 344 198 236 214 173 172 160 155 157 164 165 173 188 208 230 245 247 245 229 228 229 242 240 252 249 268 254 250 263 275 286 291 301 294 291 301 306 306 305 304 303
355 326 349 235 191 311 268 288 174 154 79 271 211 190 181 158 157 159 163 168 186 218 242 242 220 222 238 220 232 220 248 257 253 219 233 245 267 287 295 308 312 313 314 311 311 310 312 311 307
31 274 198 249 86 245 256 277 287 187 221 240 222 197 188 176 168 167 164 177 185 184 174 181 169 176 167 205 192 200 222 195 200 222 219 260 278 292 307 335 298 319 317 314 311 314 311 308 307
228 297 302 341 302 291 281 304 305 281 210 251 222 213 202 173 160 157 147 142 142 150 156 149 152 145 136 159 171 200 187 205 201 189 259 279 351 339 312 315 323 318 323 319 313 307 317 314 316
297 286 285 353 263 288 276 276 274 293 243 241 222 213 213 163 161 149 138 138 150 149 155 142 144 140 135 145 147 153 194 179 196 232 146 160 136 300 324 329 338 303 321 322 308 317 320 318 320
280 291 296 295 304 284 268 299 233 237 226 212 193 204 202 175 165 154 144 142 136 146 150 149 155 147 155 146 171 164 181 197 218 128 97 264 307 307 324 321 325 324 338 324 318 322 321 322 326
280 292 281 287 300 295 312 286 285 267 184 203 180 180 185 172 166 161 152 147 144 141 152 160 167 156 158 132 194 217 195 219 129 156 236 291 287 315 330 336 334 331 337 320 329 323 328 327 328
289 299 305 289 281 278 271 308 288 64 254 8 219 184 187 168 173 165 155 148 141 146 161 164 165 166 148 132 141 92 155 291 212 250 292 277 287 326 315 342 333 327 340 330 329 329 329 333 323
288 283 276 270 267 272 92 203 270 179 322 311 101 149 181 167 155 162 156 146 142 137 156 157 142 141 133 119 115 132 173 177 209 212 288 287 296 307 298 325 326 329 329 327 338 334 334 332 324
260 305 284 282 258 251 258 263 279 42 48 10 312 139 160 154 152 167 159 148 147 151 164 151 152 132 131 126 125 112 104 126 59 356 303 312 297 298 293 319 323 326 319 329 331 335 337 327 324
308 301 289 301 303 306 318 296 25 22 20 64 192 141 147 161 169 176 155 153 155 160 168 172 165 149 145 146 150 138 94 276 338 317 295 285 302 314 313 314 322 320 320 321 323 344 327 323 319
299 292 306 284 272 273 302 300 242 135 20 143 131 140 158 177 158 145 156 147 147 156 158 157 155 155 153 162 170 208 274 328 305 308 318 288 315 317 301 315 317 318 316 314 315 322 325 322 322
251 272 291 303 341 308 295 279 272 99 158 207 175 164 165 152 154 155 148 140 157 157 151 154 158 166 176 192 217 256 294 317 320 300 290 304 312 318 322 318 314 314 315 314 308 311 311 307 318
328 254 183 259 149 219 271 323 344 307 320 20 157 171 153 147 152 161 151 149 156 154 150 154 157 170 208 253 268 287 295 303 314 291 288 302 310 315 318 315 310 311 311 309 308 310 314 304 305
298 289 297 312 305 277 317 284 137 274 356 343 348 173 157 153 168 162 152 155 159 160 164 170 188 244 277 278 278 288 288 299 311 297 291 299 306 308 312 315 306 303 306 305 307 307 306 306 304